CW1459 Weather Reports


Display with metric or nautical units.
time (UTC)temp
F
wind
direction
speed
MPH
gust
MPH
rain 1hr
in
rain 24hr
in
rain mn
in
humidity
%
barometer
mb
20260506051318 70 213 8.0 13.0 0.00 0.00 0.00 45 1007.5
20260506050318 70 149 6.0 17.0 0.00 0.00 0.00 45 1007.7
20260506044326 70 154 6.0 15.0 0.00 0.00 0.00 45 1007.7
20260506043325 70 196 7.0 11.0 0.00 0.00 0.00 45 1007.7
20260506042332 70 190 6.0 11.0 0.00 0.00 0.00 45 1007.6
20260506041315 70 180 8.0 14.0 0.00 0.00 0.00 44 1007.6
20260506040317 71 196 5.0 12.0 0.00 0.00 0.00 44 1007.6
20260506035319 71 213 5.0 9.0 0.00 0.00 0.00 43 1007.5
20260506034336 71 162 5.0 11.0 0.00 0.00 0.00 43 1007.5
20260506033325 71 128 6.0 13.0 0.00 0.00 0.00 42 1007.6
20260506032338 71 136 6.0 13.0 0.00 0.00 0.00 41 1007.5
20260506031340 71 221 7.0 15.0 0.00 0.00 0.00 41 1007.5
20260506030333 71 188 7.0 15.0 0.00 0.00 0.00 41 1007.5
20260506025341 71 165 6.0 12.0 0.00 0.00 0.00 40 1007.5
20260506024318 71 171 7.0 13.0 0.00 0.00 0.00 40 1007.5
20260506023316 71 206 6.0 14.0 0.00 0.00 0.00 38 1007.6
20260506022315 71 198 6.0 14.0 0.00 0.00 0.00 38 1007.5
20260506021340 72 173 6.0 15.0 0.00 0.00 0.00 38 1007.6
20260506020338 72 217 7.0 11.0 0.00 0.00 0.00 37 1007.6
20260506015320 72 173 6.0 15.0 0.00 0.00 0.00 36 1007.6
20260506014315 73 189 5.0 12.0 0.00 0.00 0.00 35 1007.5
20260506013339 73 171 7.0 16.0 0.00 0.00 0.00 35 1007.4
20260506011400 73 192 5.0 10.0 0.00 0.00 0.00 35 1007.1
20260506010339 73 183 6.0 13.0 0.00 0.00 0.00 35 1007.0
20260506005314 74 188 6.0 11.0 0.00 0.00 0.00 34 1006.9
20260506004319 74 162 6.0 11.0 0.00 0.00 0.00 34 1006.9
20260506003337 74 130 7.0 14.0 0.00 0.00 0.00 33 1006.7
20260506002333 75 186 9.0 14.0 0.00 0.00 0.00 33 1006.7
20260506001332 75 200 8.0 14.0 0.00 0.00 0.00 34 1006.5
20260506000334 75 174 6.0 11.0 0.00 0.00 0.00 35 1006.4
20260505235339 76 180 6.0 13.0 0.00 0.00 0.00 35 1006.3
20260505234337 76 181 7.0 14.0 0.00 0.00 0.00 34 1006.3
20260505233359 77 178 7.0 15.0 0.00 0.00 0.00 34 1006.4
20260505232350 77 215 7.0 14.0 0.00 0.00 0.00 34 1006.3
20260505231317 77 164 7.0 15.0 0.00 0.00 0.00 34 1006.3
20260505230340 78 185 6.0 15.0 0.00 0.00 0.00 33 1006.2
20260505225319 78 205 7.0 15.0 0.00 0.00 0.00 34 1006.1
20260505224315 79 199 8.0 17.0 0.00 0.00 0.00 33 1006.3
20260505223339 79 135 10.0 17.0 0.00 0.00 0.00 34 1006.2
20260505222335 79 197 8.0 18.0 0.00 0.00 0.00 34 1006.4
20260505221317 79 146 7.0 21.0 0.00 0.00 0.00 34 1006.2
20260505220333 79 161 8.0 17.0 0.00 0.00 0.00 34 1006.3
20260505215314 79 132 10.0 19.0 0.00 0.00 0.00 33 1006.3
20260505214317 79 248 8.0 21.0 0.00 0.00 0.00 34 1006.4
20260505213339 79 206 9.0 22.0 0.00 0.00 0.00 34 1006.4
20260505212314 80 196 8.0 18.0 0.00 0.00 0.00 35 1006.2
20260505211329 81 169 11.0 22.0 0.00 0.00 0.00 34 1006.1
20260505210353 83 200 7.0 20.0 0.00 0.00 0.00 36 1006.1
20260505205356 83 220 6.0 17.0 0.00 0.00 0.00 35 1006.1
20260505204319 83 250 10.0 21.0 0.00 0.00 0.00 32 1006.1
20260505203353 83 222 11.0 22.0 0.00 0.00 0.00 28 1006.2
20260505202318 84 202 11.0 24.0 0.00 0.00 0.00 28 1006.1
20260505201339 84 219 10.0 17.0 0.00 0.00 0.00 28 1006.1
20260505200336 84 219 13.0 22.0 0.00 0.00 0.00 28 1006.3
20260505195317 85 209 11.0 17.0 0.00 0.00 0.00 28 1006.4
20260505194339 84 180 9.0 22.0 0.00 0.00 0.00 28 1006.4
20260505193315 85 211 8.0 16.0 0.00 0.00 0.00 34 1006.5
20260505192314 83 177 9.0 16.0 0.00 0.00 0.00 37 1006.5
20260505191337 83 185 7.0 18.0 0.00 0.00 0.00 34 1006.8
20260505190401 84 229 9.0 16.0 0.00 0.00 0.00 34 1007.0
20260505185338 84 233 9.0 18.0 0.00 0.00 0.00 33 1007.1
20260505184339 83 195 8.0 18.0 0.00 0.00 0.00 33 1007.2
20260505183314 83 187 8.0 25.0 0.00 0.00 0.00 33 1007.3
20260505182317 83 195 10.0 20.0 0.00 0.00 0.00 33 1007.4
20260505181328 83 180 9.0 20.0 0.00 0.00 0.00 33 1007.6
20260505180337 82 248 10.0 22.0 0.00 0.00 0.00 34 1007.7
20260505175336 83 205 9.0 20.0 0.00 0.00 0.00 34 1007.9
20260505174333 83 167 9.0 19.0 0.00 0.00 0.00 37 1007.9
20260505173334 82 187 9.0 18.0 0.00 0.00 0.00 34 1008.0
20260505172321 82 191 9.0 17.0 0.00 0.00 0.00 36 1008.0
20260505171315 83 150 9.0 19.0 0.00 0.00 0.00 33 1008.1
20260505170316 83 219 7.0 21.0 0.00 0.00 0.00 35 1008.2
20260505165319 82 135 9.0 19.0 0.00 0.00 0.00 37 1008.3
20260505164313 81 198 9.0 21.0 0.00 0.00 0.00 38 1008.5
20260505163313 81 163 10.0 20.0 0.00 0.00 0.00 36 1008.6
20260505162336 81 232 10.0 20.0 0.00 0.00 0.00 38 1008.8
20260505161313 80 202 11.0 16.0 0.00 0.00 0.00 39 1009.1
20260505160315 80 192 5.0 21.0 0.00 0.00 0.00 42 1009.2
20260505153316 79 194 6.0 16.0 0.00 0.00 0.00 40 1009.3
20260505152358 79 208 10.0 17.0 0.00 0.00 0.00 40 1009.3
20260505151327 78 190 8.0 14.0 0.00 0.00 0.00 43 1009.5
20260505150328 79 163 7.0 18.0 0.00 0.00 0.00 40 1009.3
20260505140326 75 207 4.0 13.0 0.00 0.00 0.00 48 1009.3
20260505124334 68 200 7.0 11.0 0.00 0.00 0.00 53 1010.1
20260505123316 68 205 6.0 11.0 0.00 0.00 0.00 54 1010.1
20260505122313 67 225 4.0 10.0 0.00 0.00 0.00 55 1010.3
20260505121312 66 138 8.0 14.0 0.00 0.00 0.00 56 1010.3
20260505120330 65 212 7.0 15.0 0.00 0.00 0.00 57 1010.3
20260505115313 64 192 6.0 12.0 0.00 0.00 0.00 58 1010.3
20260505114334 64 219 6.0 14.0 0.00 0.00 0.00 59 1010.0
20260505113335 63 165 4.0 7.0 0.00 0.00 0.00 60 1009.9
20260505112318 63 206 3.0 7.0 0.00 0.00 0.00 60 1009.7
20260505111346 62 140 5.0 9.0 0.00 0.00 0.00 60 1009.6
20260505110329 62 203 4.0 8.0 0.00 0.00 0.00 60 1009.4
20260505101320 63 154 6.0 9.0 0.00 0.00 0.00 58 1008.9
20260505100314 63 121 7.0 10.0 0.00 0.00 0.00 58 1008.8
20260505095331 63 146 5.0 10.0 0.00 0.00 0.00 58 1008.8
20260505094312 63 146 6.0 11.0 0.00 0.00 0.00 59 1008.8
20260505093313 63 195 4.0 9.0 0.00 0.00 0.00 58 1008.9
20260505092336 64 208 7.0 9.0 0.00 0.00 0.00 58 1008.8
20260505091312 63 177 7.0 11.0 0.00 0.00 0.00 59 1008.7
20260505090329 63 192 4.0 9.0 0.00 0.00 0.00 60 1008.7
20260505085316 63 193 4.0 10.0 0.00 0.00 0.00 60 1008.7
20260505084336 63 148 3.0 8.0 0.00 0.00 0.00 59 1008.6
20260505083320 64 158 7.0 11.0 0.00 0.00 0.00 59 1008.5
20260505082319 63 190 6.0 12.0 0.00 0.00 0.00 60 1008.4
20260505081323 63 157 5.0 12.0 0.00 0.00 0.00 60 1008.4
20260505080317 63 183 5.0 11.0 0.00 0.00 0.00 60 1008.4
20260505075328 63 143 5.0 10.0 0.00 0.00 0.00 60 1008.4
20260505074402 64 134 6.0 10.0 0.00 0.00 0.00 59 1008.3
20260505073318 64 217 6.0 10.0 0.00 0.00 0.00 59 1008.2
20260505072338 64 138 7.0 11.0 0.00 0.00 0.00 58 1008.2
20260505071341 63 141 7.0 11.0 0.00 0.00 0.00 60 1008.1
20260505070318 62 147 5.0 11.0 0.00 0.00 0.00 62 1008.1
20260505065328 60 145 6.0 10.0 0.00 0.00 0.00 65 1008.0
20260505064316 59 156 3.0 7.0 0.00 0.00 0.00 68 1008.2
20260505063344 58 177 2.0 4.0 0.00 0.00 0.00 70 1008.3
20260505062315 58 175 1.0 3.0 0.00 0.00 0.00 72 1008.3
20260505061317 58 191 0.0 1.0 0.00 0.00 0.00 71 1008.4
20260505060322 59 191 0.0 2.0 0.00 0.00 0.00 68 1008.4
20260505055318 61 191 0.0 2.0 0.00 0.00 0.00 65 1008.3
20260505054317 62 191 0.0 2.0 0.00 0.00 0.00 62 1008.4